Vertical_Velocity
-1 -1 -0 0 0 0 0 -0 -1 -1 -1 -0 -0 -0 -0 -1 -0 0 1 1 1 1 2 3 5 4 2 -0 -1 2 6 6 5 2 1 4 7 12 18 21 18 19 18 9 5 7 11 8 6 6 6 7 4 0 -2 1 4 7 11 15 13 9 5 2 1 -0 -1 -2 -1
-0 -1 -0 -0 1 1 1 0 0 0 0 0 -0 -0 -1 -1 -0 -0 0 0 1 2 3 4 4 3 1 0 -1 -1 -0 3 4 3 2 5 7 11 14 16 15 15 15 11 7 7 9 8 9 11 14 18 15 8 1 -1 5 9 12 12 10 7 5 2 0 -1 -2 -1 0
-0 -0 -0 -0 0 0 0 0 0 0 0 0 -0 -0 -1 -1 -0 -0 0 1 2 2 2 2 2 2 1 0 -1 -1 -1 -0 3 4 4 4 5 7 10 11 11 9 5 2 -2 -2 1 4 4 7 11 14 14 11 8 2 5 8 10 10 9 7 4 2 1 -0 -1 -1 -0
-0 -0 -0 -1 -0 -0 -0 0 0 0 -0 -0 -1 -1 -1 -0 0 1 1 1 0 -0 0 1 1 1 1 0 0 -1 -1 -1 0 2 4 5 5 5 6 8 8 8 8 8 4 -0 -3 -3 -0 3 5 5 7 8 9 8 8 7 7 8 3 0 -0 2 2 1 -1 -1 -1
-0 -0 -0 -0 -0 -0 0 0 0 -0 -0 -1 -1 -1 -1 -0 -0 0 0 -0 -1 -0 1 2 2 1 1 1 0 -0 -1 -2 -1 0 2 4 4 4 5 7 7 7 9 12 10 6 0 -7 -9 -9 -6 -1 2 6 9 10 11 11 10 6 -0 -5 -7 -8 -7 -6 -5 -2 -1
-1 -0 0 0 0 0 1 1 1 0 -0 -1 -1 -1 -1 -1 -1 -1 -0 -0 0 1 1 1 1 1 0 -0 -1 -1 -2 -2 -2 -0 1 1 2 2 2 3 6 7 7 9 13 13 9 2 -2 -7 -12 -18 -16 -9 -1 2 4 6 8 10 6 3 -0 -4 -5 -6 -5 -3 -1
-0 0 1 1 1 1 1 1 1 1 0 -0 -1 -1 -1 -1 -1 -0 0 1 1 1 0 -1 -1 -1 -1 -0 -1 -2 -2 -2 -3 -1 -0 1 1 1 1 0 1 2 3 4 11 14 13 7 8 9 8 3 -4 -6 -7 -7 -5 -3 0 3 4 4 3 -0 -2 -3 -2 -2 -2
1 1 1 1 1 1 1 1 1 0 -0 -1 -1 -1 -1 -1 -0 0 1 0 0 0 0 -0 -1 -1 -0 0 0 -0 -2 -3 -3 -3 -2 0 1 2 2 1 -0 -1 0 2 6 9 12 12 11 13 16 16 14 10 6 1 1 1 1 1 3 3 2 1 1 0 -0 -1 -2
0 1 1 1 1 1 1 1 1 0 0 -0 -0 -1 -1 -1 -0 -0 -1 -2 -1 0 1 1 0 0 0 0 1 0 -1 -2 -3 -3 -2 -2 -1 1 2 2 2 1 1 1 3 5 6 8 9 10 11 9 9 8 7 5 5 4 4 4 6 6 6 5 4 2 1 1 0
-0 0 0 -0 0 0 0 0 1 1 1 0 0 -0 -0 -0 -0 -1 -1 -2 -0 1 1 1 1 0 -1 -1 -0 0 0 -0 -1 -1 -2 -2 -2 -1 0 2 3 3 3 2 2 2 2 3 4 5 6 6 6 5 4 3 2 1 2 2 2 3 3 5 5 5 4 4 4
-1 -0 -0 -0 -0 -0 -0 -0 0 1 1 0 0 0 -0 -0 -1 -1 -1 -0 0 0 1 1 1 0 -1 -1 -1 -0 1 0 -0 -1 -1 -1 -2 -1 -1 1 3 4 4 3 3 2 1 0 0 0 1 2 3 4 5 5 3 2 1 1 1 1 1 1 2 2 2 3 3
-1 -1 -0 -0 -0 -0 -0 -0 -0 -0 -0 0 0 -0 -1 -1 -1 -0 -0 -0 -0 -0 -0 0 0 0 -0 -1 -1 -0 0 -0 -0 -1 -1 -1 -1 -1 -1 -0 1 3 4 4 4 3 3 2 0 -1 -1 1 1 2 4 6 6 4 1 1 0 0 0 0 -0 -0 -1 -1 -1
-1 -1 -0 -1 -1 -1 -1 -1 -1 -1 -1 -1 -0 -0 -1 -1 -0 -0 -0 -1 -1 -1 -1 -0 -0 -0 -0 -0 -0 0 0 0 -0 -0 -1 -1 -0 -0 -0 -1 -0 1 2 3 4 4 4 4 2 1 -0 0 -0 -0 1 4 4 1 -1 -0 -0 -1 -1 -0 -1 -1 -1 -2 -2
-0 -0 -1 -1 -1 -1 -1 -1 -2 -2 -2 -1 -1 -1 -1 -1 -0 -0 -1 -1 -1 -1 -1 -1 -1 -1 -0 0 0 1 1 1 0 -0 -0 -0 -0 -0 -0 -0 -0 -0 1 2 3 3 4 4 4 3 2 1 -0 -2 -3 -2 -2 -2 -2 -0 -1 -1 -0 0 0 -0 -0 -1 -0
-0 -0 -0 -1 -1 -1 -2 -2 -2 -2 -2 -2 -1 -1 -1 -1 -1 -0 -1 -1 -1 -1 -1 -1 -1 -1 -0 -0 0 1 1 1 1 0 -0 -1 -1 -1 -1 -1 -0 -0 0 1 1 2 4 4 4 4 4 3 2 -0 -3 -5 -4 -3 -2 -0 0 1 2 2 3 3 2 2 2
0 -0 -0 -1 -1 -2 -2 -2 -2 -2 -2 -1 -1 -1 -1 -1 -1 -0 -1 -1 -1 -1 -1 -1 -1 -1 -1 -1 -0 0 0 1 1 0 -1 -1 -1 -2 -2 -2 -1 -1 -0 0 1 1 2 4 5 5 5 4 4 2 0 -1 -3 -4 -4 -2 0 2 3 3 4 4 4 4 4
0 -0 -0 -1 -1 -1 -1 -1 -1 -1 -1 -1 -1 -1 -1 -1 -1 -1 -1 -1 -1 -1 -1 -1 -1 -1 -1 -1 -1 -1 -1 -1 -1 -1 -1 -1 -1 -2 -2 -2 -2 -1 -0 0 0 0 1 2 3 4 4 4 3 2 1 0 -2 -4 -5 -6 -4 -2 -1 1 2 3 3 3 3
-0 -0 -0 -1 -1 -1 -1 -1 -1 -1 -0 -0 -0 -1 -1 -1 -1 -1 -1 -0 -0 -0 -0 -1 -1 -1 -1 -1 -2 -2 -2 -2 -2 -2 -1 -1 -1 -1 -1 -1 -2 -1 -1 -1 -0 -0 0 0 1 2 2 2 2 1 -0 -1 -2 -3 -4 -6 -6 -6 -6 -4 -2 -0 1 2 2
-0 -0 -0 -1 -1 -1 -1 -1 -1 -0 -0 -0 0 0 -0 -0 -0 -0 -0 -0 -0 -0 -0 0 -0 -0 -1 -1 -1 -2 -2 -3 -3 -2 -2 -1 -0 -0 -0 -0 -1 -1 -1 -1 -1 -0 0 1 1 1 1 1 0 -0 -1 -2 -2 -2 -2 -3 -4 -5 -5 -5 -4 -3 -2 -0 1
-0 -0 -1 -1 -1 -1 -1 -1 -1 -0 -0 0 0 1 1 1 1 0 -0 -1 -1 -0 -0 0 0 0 -0 -0 -0 -1 -1 -2 -2 -2 -2 -2 -1 -1 -1 -0 -0 -0 -0 -0 -1 -0 0 1 1 1 0 0 -0 -0 -0 -1 -1 -1 -1 -1 -2 -2 -2 -3 -4 -4 -3 -2 -1
-0 -0 -0 -1 -1 -1 -1 -1 -1 -0 -0 0 0 1 1 1 1 0 -0 -0 -0 -0 -0 -0 -0 -0 -0 -0 -0 -1 -1 -1 -1 -1 -1 -2 -2 -2 -2 -1 -0 0 0 0 -0 -0 0 1 2 2 1 1 1 1 1 1 1 1 1 0 -1 -1 -1 -1 -2 -3 -3 -3 -2
-0 -0 -0 -0 -0 -0 -1 -1 -1 -0 -0 0 0 1 1 1 1 1 1 1 1 0 0 0 -0 -0 -0 -0 -1 -0 -0 -0 -0 -0 -1 -1 -1 -1 -1 -1 -0 -0 -0 -1 -1 -1 -0 1 1 2 2 2 2 1 1 1 1 1 1 1 1 1 0 -0 -1 -2 -3 -4 -3
-0 -0 -0 -0 -0 -0 -0 -0 -0 -0 -0 0 0 0 0 0 0 1 1 1 1 1 1 0 0 0 0 0 0 0 0 0 0 0 0 -0 -0 -0 -0 -0 -0 -1 -2 -3 -3 -2 -1 -0 0 1 1 2 2 2 1 1 0 -0 -0 0 0 0 0 -0 -1 -2 -2 -3 -3
-0 -0 -0 -0 -0 -0 -0 -0 -0 -0 -0 -0 -0 -0 -0 -0 0 0 0 1 1 1 1 1 1 1 1 1 1 1 1 1 1 1 0 0 -0 -0 -0 0 -0 -1 -2 -3 -3 -2 -2 -2 -1 -1 0 1 1 1 1 1 -0 -1 -2 -2 -2 -2 -2 -1 -2 -2 -2 -3 -4
-0 -0 -0 -0 -0 -0 0 0 -0 -0 -0 -1 -0 -0 -0 -0 -0 -0 -0 0 0 0 1 1 1 1 1 1 1 1 1 1 1 0 0 -0 -0 -0 -0 -0 -0 -1 -1 -1 -1 -1 -1 -1 -1 -1 -1 0 1 1 1 1 0 -1 -2 -3 -4 -4 -3 -3 -3 -3 -3 -3 -3
0 0 0 -0 -0 -0 -0 -0 -0 -0 -0 -0 -0 -0 -0 -1 -0 -0 -0 0 0 0 0 0 0 0 0 0 1 1 1 1 1 0 -0 -1 -1 -1 -1 -1 -1 -1 -1 -1 -0 -0 -1 -1 -1 -1 -1 -1 -0 -0 0 1 0 -0 -1 -1 -2 -3 -4 -4 -3 -3 -2 -2 -2
0 0 0 0 -0 -0 -0 -0 0 0 0 -0 -0 -0 -0 -1 -0 -0 -0 0 0 0 0 -0 -1 -1 -1 -1 -0 -0 0 1 1 1 0 -0 -0 -1 -1 -1 -1 -1 -1 -1 -1 -0 -1 -1 -2 -2 -2 -2 -1 -1 -0 0 0 0 -0 -0 -1 -2 -2 -3 -2 -2 -2 -1 -1
0 0 0 0 -0 -0 -0 0 0 0 0 -0 -0 -0 -0 -0 -0 -0 -0 0 1 1 0 -1 -1 -1 -1 -2 -2 -1 -1 -0 0 0 1 0 0 -0 -0 -1 -1 -1 -1 -1 -1 -1 -1 -1 -1 -2 -2 -2 -2 -2 -1 -1 -0 0 0 0 -0 -1 -1 -1 -1 -1 -1 -0 -0
-0 -0 -0 -0 -0 -0 -0 -0 -0 -0 -0 -0 -0 -0 0 0 0 0 0 0 0 -0 -1 -2 -2 -2 -2 -2 -2 -2 -1 -1 -1 -0 0 1 0 0 -0 -0 -0 -0 -0 -0 -0 -1 -1 -1 -1 -1 -1 -2 -2 -2 -2 -1 -1 -0 0 1 0 -0 -1 -1 -0 -0 0 0 0
-0 -0 -0 -0 -0 -0 -0 -0 -1 -0 -0 -0 -0 0 0 1 1 0 -0 -0 -1 -1 -1 -1 -1 -2 -2 -2 -2 -2 -2 -2 -1 -1 -0 0 -0 -0 -0 0 0 0 0 -0 -0 -0 -1 -0 -0 -0 -0 -1 -2 -2 -2 -1 -1 -1 -1 -0 1 0 -0 -2 -2 -1 -0 0 1
-0 -0 -0 -0 -0 -1 -1 -1 -1 -1 -1 -0 -0 0 0 0 -0 -0 -1 -1 -1 -1 -0 -0 -0 -1 -1 -1 -2 -2 -2 -2 -2 -1 -1 -1 -1 -0 -0 0 1 0 0 -0 -0 -0 -0 -0 -0 -0 -0 -0 -0 -1 -2 -2 -1 -1 -1 -1 -0 0 0 -1 -2 -2 -2 -1 1
-1 -0 -0 -0 -1 -1 -1 -1 -1 -1 -1 -1 -0 -0 0 -0 -0 -0 -0 -0 -0 -0 -0 0 -0 -0 -1 -1 -1 -2 -2 -2 -2 -2 -2 -1 -1 -1 -0 0 1 0 0 -0 0 0 0 0 -0 -0 -0 0 0 -0 -1 -2 -2 -1 -1 -1 -1 -1 -0 0 -1 -2 -3 -3 -1
-1 -1 -1 -1 -1 -1 -1 -1 -1 -1 -1 -1 -1 -0 -0 -0 -0 -0 -0 -0 -1 -1 -1 -1 -1 -1 -1 -2 -2 -2 -2 -2 -2 -2 -2 -2 -1 -1 -1 -0 -0 0 -0 -0 0 1 1 1 0 -0 -0 0 0 0 0 -0 -1 -2 -1 -1 -1 -2 -1 -0 0 -0 -1 -3 -3
-1 -1 -1 -1 -1 -1 -1 -1 -1 -1 -1 -1 -1 -1 -0 -0 -1 -1 -1 -1 -1 -1 -1 -1 -1 -1 -1 -1 -2 -2 -2 -2 -2 -2 -2 -2 -1 -1 -1 -1 -1 -0 0 0 0 0 1 1 1 1 0 -0 0 0 1 1 0 -1 -2 -2 -1 -1 -2 -1 -0 0 -0 -1 -3
-1 -1 -1 -1 -1 -1 -1 -1 -1 -1 -1 -1 -1 -1 -1 -1 -1 -1 -1 -1 -1 -1 -1 -1 -1 -1 -1 -1 -1 -1 -2 -2 -2 -2 -2 -2 -2 -1 -1 -1 -1 -0 0 0 0 0 0 1 1 1 1 0 -0 0 0 1 1 1 0 -2 -1 -1 -1 -2 -1 -0 -0 -1 -2
-1 -1 -1 -1 -1 -1 -1 -1 -1 -1 -1 -1 -1 -1 -1 -1 -1 -1 -1 -1 -1 -1 -1 -1 -1 -1 -1 -1 -2 -2 -2 -2 -2 -2 -2 -2 -2 -2 -2 -1 -1 -1 -0 0 0 -0 -0 -0 1 1 1 1 0 -0 -0 0 1 2 2 1 -1 -1 -1 -1 -2 -1 -1 -1 -1
-1 -1 -1 -1 -1 -1 -1 -1 -1 -1 -1 -1 -1 -1 -1 -1 -1 -1 -1 -1 -1 -1 -1 -0 -0 -1 -1 -2 -2 -2 -3 -3 -3 -3 -3 -3 -2 -2 -2 -2 -2 -1 -1 -1 -0 -0 -0 -0 -0 0 1 1 0 0 -0 -0 -0 1 1 2 2 0 -0 -0 -1 -2 -2 -1 -1
-1 -1 -1 -1 -1 -1 -1 -1 -1 -1 -1 -1 -1 -1 -1 -1 -1 -1 -2 -2 -2 -2 -1 -1 -1 -1 -1 -2 -3 -3 -3 -3 -3 -3 -3 -3 -3 -3 -3 -3 -3 -2 -2 -2 -1 -1 -1 -1 -1 -0 -0 0 0 -0 -0 -1 -1 -0 0 1 2 2 1 1 0 -1 -1 -1 -1
-0 -1 -1 -1 -1 -1 -1 -1 -1 -1 -1 -1 -1 -1 -1 -1 -1 -2 -2 -2 -2 -2 -2 -1 -1 -1 -1 -1 -2 -3 -3 -3 -4 -4 -4 -4 -4 -4 -3 -3 -3 -3 -3 -3 -2 -2 -2 -1 -1 -1 -0 -0 -0 -0 -1 -1 -1 -1 -0 -0 0 1 2 2 2 1 0 0 -0
-0 -0 -1 -1 -1 -1 -1 -1 -1 -1 -1 -1 -1 -1 -1 -2 -2 -2 -2 -2 -2 -2 -2 -1 -1 -1 -0 -0 -1 -2 -2 -3 -3 -4 -4 -4 -4 -4 -4 -4 -3 -3 -3 -3 -3 -3 -2 -2 -2 -1 -1 -1 -1 -1 -1 -1 -1 -1 -0 -0 -0 -0 0 1 2 2 2 1 1
-0 -0 -0 -1 -1 -1 -1 -1 -1 -1 -1 -1 -1 -1 -1 -2 -2 -2 -2 -2 -2 -2 -2 -2 -1 -1 -1 -0 -0 -1 -1 -2 -2 -3 -3 -4 -4 -4 -4 -4 -4 -4 -3 -3 -3 -3 -3 -3 -2 -2 -1 -1 -1 -1 -1 -1 -2 -1 -1 -1 -1 -1 -1 -0 1 2 2 2 2
Height
1419 1417 1416 1415 1413 1411 1410 1408 1407 1405 1404 1402 1400 1398 1396 1395 1393 1392 1390 1389 1387 1385 1383 1382 1380 1378 1376 1375 1373 1372 1371 1370 1368 1366 1365 1363 1361 1360 1359 1358 1356 1355 1354 1353 1351 1351 1351 1351 1351 1350 1350 1351 1351 1351 1350 1350 1350 1351 1352 1353 1354 1355 1356 1358 1359 1360 1361 1362 1363
1419 1418 1416 1415 1413 1412 1410 1409 1407 1405 1404 1402 1400 1399 1397 1395 1394 1392 1391 1389 1387 1386 1384 1382 1380 1379 1377 1375 1374 1373 1371 1370 1369 1367 1366 1365 1363 1362 1360 1359 1358 1356 1355 1355 1354 1353 1353 1353 1352 1352 1351 1352 1352 1351 1351 1351 1351 1352 1352 1353 1354 1355 1357 1358 1359 1360 1361 1362 1363
1419 1418 1416 1415 1413 1412 1410 1409 1407 1406 1405 1403 1401 1399 1398 1396 1395 1393 1391 1390 1388 1386 1385 1383 1381 1379 1377 1376 1375 1374 1372 1370 1369 1368 1366 1365 1364 1363 1361 1360 1359 1358 1357 1356 1355 1355 1354 1354 1353 1353 1353 1352 1352 1352 1352 1352 1352 1353 1353 1354 1355 1356 1357 1358 1360 1361 1362 1363 1364
1420 1418 1416 1415 1414 1412 1411 1410 1408 1406 1405 1403 1401 1400 1398 1397 1395 1394 1392 1390 1389 1387 1385 1384 1382 1380 1378 1377 1375 1374 1373 1371 1370 1368 1367 1366 1365 1364 1363 1362 1360 1360 1358 1357 1357 1356 1356 1355 1354 1353 1353 1353 1353 1353 1353 1354 1354 1354 1354 1354 1355 1356 1358 1359 1360 1361 1362 1363 1364
1420 1418 1416 1415 1414 1412 1411 1410 1408 1407 1405 1404 1402 1400 1399 1397 1395 1394 1392 1391 1389 1388 1386 1385 1383 1381 1379 1378 1376 1375 1374 1372 1370 1369 1368 1367 1366 1365 1364 1363 1362 1361 1360 1359 1359 1358 1358 1357 1357 1356 1355 1354 1354 1354 1355 1355 1355 1355 1355 1355 1356 1357 1358 1359 1360 1361 1362 1363 1364
1420 1418 1416 1415 1414 1412 1411 1410 1408 1407 1405 1404 1402 1401 1399 1398 1396 1395 1393 1391 1390 1389 1387 1385 1384 1382 1380 1379 1377 1375 1374 1373 1371 1370 1368 1367 1366 1365 1365 1364 1363 1362 1361 1360 1360 1360 1359 1358 1358 1357 1357 1356 1355 1355 1355 1356 1356 1357 1357 1357 1357 1357 1358 1359 1360 1361 1362 1363 1364
1420 1418 1417 1415 1414 1413 1411 1410 1409 1407 1406 1404 1403 1401 1400 1398 1397 1395 1394 1392 1390 1389 1387 1386 1384 1382 1381 1379 1378 1376 1375 1374 1372 1371 1369 1368 1367 1366 1365 1365 1364 1363 1362 1361 1361 1360 1360 1359 1359 1359 1358 1358 1357 1357 1357 1357 1357 1357 1357 1357 1357 1357 1358 1359 1360 1361 1362 1363 1364
1420 1418 1417 1415 1414 1413 1411 1410 1409 1407 1406 1405 1403 1402 1400 1399 1397 1396 1394 1393 1391 1390 1388 1386 1385 1383 1382 1380 1379 1377 1375 1374 1373 1372 1370 1369 1368 1367 1366 1365 1365 1364 1363 1362 1362 1361 1361 1360 1360 1360 1360 1360 1359 1359 1358 1358 1358 1358 1358 1358 1358 1358 1359 1359 1360 1361 1362 1363 1363
1420 1419 1417 1416 1414 1413 1412 1410 1409 1407 1406 1405 1403 1402 1401 1399 1398 1396 1395 1393 1391 1390 1389 1387 1386 1384 1383 1381 1380 1378 1376 1375 1374 1373 1371 1370 1369 1368 1367 1366 1365 1365 1364 1363 1363 1362 1362 1362 1361 1361 1361 1360 1360 1360 1360 1360 1360 1360 1360 1360 1360 1360 1360 1360 1361 1362 1362 1363 1363
1420 1419 1417 1416 1415 1413 1412 1410 1409 1408 1406 1405 1404 1402 1401 1400 1398 1397 1395 1394 1392 1391 1390 1388 1386 1385 1383 1382 1380 1379 1377 1376 1375 1374 1373 1371 1370 1368 1367 1366 1366 1365 1365 1364 1363 1363 1363 1362 1362 1362 1361 1361 1361 1361 1361 1361 1360 1360 1360 1360 1361 1361 1361 1362 1362 1363 1363 1364 1364
1420 1419 1418 1416 1415 1414 1412 1411 1410 1408 1407 1405 1404 1402 1401 1400 1398 1397 1396 1394 1393 1392 1390 1389 1387 1386 1384 1383 1381 1380 1379 1377 1376 1375 1374 1372 1371 1370 1368 1367 1366 1365 1365 1364 1364 1364 1363 1363 1363 1362 1362 1361 1361 1361 1361 1361 1361 1361 1361 1361 1361 1362 1362 1362 1363 1363 1364 1365 1365
1420 1419 1418 1417 1415 1414 1413 1411 1410 1409 1407 1406 1404 1403 1401 1400 1399 1397 1396 1395 1394 1392 1391 1390 1388 1387 1385 1384 1382 1381 1380 1378 1377 1376 1375 1373 1372 1371 1370 1368 1367 1366 1365 1365 1364 1364 1364 1363 1363 1363 1362 1362 1362 1362 1362 1362 1361 1361 1361 1361 1362 1362 1362 1363 1363 1364 1364 1365 1365
1421 1420 1418 1417 1416 1415 1413 1412 1410 1409 1407 1406 1404 1403 1401 1400 1399 1397 1396 1395 1394 1393 1391 1390 1389 1388 1386 1385 1383 1382 1381 1380 1378 1377 1376 1375 1373 1372 1371 1370 1368 1367 1366 1365 1365 1365 1364 1364 1364 1363 1363 1363 1362 1362 1362 1362 1362 1362 1362 1362 1362 1362 1362 1363 1363 1364 1364 1365 1365
1421 1420 1418 1417 1416 1415 1413 1412 1410 1409 1408 1406 1405 1403 1401 1400 1399 1397 1396 1395 1394 1393 1392 1391 1390 1388 1387 1386 1385 1383 1382 1380 1379 1378 1377 1375 1375 1373 1372 1371 1370 1368 1367 1366 1365 1365 1365 1364 1364 1364 1363 1363 1363 1363 1363 1363 1363 1363 1363 1363 1363 1363 1363 1363 1363 1364 1364 1364 1365
1421 1420 1419 1417 1416 1415 1413 1412 1410 1409 1408 1406 1405 1403 1401 1400 1399 1398 1396 1395 1394 1393 1392 1391 1390 1389 1388 1387 1385 1384 1383 1381 1380 1379 1378 1377 1375 1375 1373 1372 1371 1370 1368 1367 1366 1366 1365 1365 1365 1364 1364 1364 1363 1363 1363 1363 1363 1363 1363 1363 1364 1364 1364 1364 1364 1364 1364 1364 1364
1421 1420 1419 1417 1416 1415 1413 1412 1410 1409 1407 1406 1405 1403 1402 1400 1399 1398 1397 1395 1395 1393 1392 1391 1390 1390 1389 1387 1386 1385 1384 1382 1381 1380 1379 1378 1377 1376 1375 1374 1372 1371 1370 1369 1368 1367 1366 1366 1365 1365 1365 1364 1364 1364 1364 1364 1364 1363 1363 1363 1363 1364 1364 1364 1364 1364 1364 1364 1364
1421 1420 1418 1417 1416 1414 1413 1411 1410 1409 1407 1406 1405 1403 1402 1401 1400 1398 1397 1396 1395 1394 1393 1391 1391 1390 1389 1388 1387 1385 1385 1383 1382 1381 1380 1379 1378 1377 1376 1375 1374 1373 1372 1371 1370 1369 1368 1367 1367 1366 1365 1365 1365 1365 1364 1364 1364 1364 1364 1364 1364 1363 1364 1364 1364 1364 1364 1364 1364
1421 1420 1418 1417 1415 1414 1413 1411 1410 1409 1407 1406 1405 1404 1402 1401 1400 1399 1398 1396 1395 1394 1393 1392 1391 1390 1389 1388 1387 1386 1385 1384 1383 1382 1381 1380 1379 1378 1377 1376 1375 1374 1373 1372 1371 1370 1370 1369 1368 1367 1367 1366 1366 1365 1365 1365 1365 1365 1365 1364 1364 1364 1364 1364 1364 1364 1364 1364 1364
1420 1419 1418 1417 1415 1414 1413 1411 1410 1409 1408 1406 1405 1404 1403 1402 1400 1400 1398 1397 1396 1395 1394 1393 1391 1390 1389 1388 1387 1386 1385 1385 1384 1383 1382 1381 1380 1379 1378 1377 1376 1375 1375 1374 1373 1372 1371 1370 1370 1369 1368 1368 1367 1367 1366 1366 1365 1365 1365 1365 1365 1365 1365 1364 1364 1364 1364 1364 1364
1420 1419 1418 1416 1415 1414 1413 1411 1410 1409 1408 1407 1406 1405 1404 1402 1401 1400 1399 1398 1396 1395 1394 1393 1392 1391 1390 1389 1388 1387 1386 1385 1384 1383 1383 1382 1381 1380 1379 1378 1377 1376 1375 1375 1374 1373 1372 1371 1371 1370 1370 1369 1369 1368 1367 1367 1366 1366 1366 1366 1366 1365 1365 1365 1365 1364 1364 1364 1364
1420 1419 1418 1416 1415 1414 1413 1411 1410 1409 1408 1407 1406 1405 1404 1403 1402 1401 1400 1398 1397 1396 1395 1394 1393 1392 1390 1390 1388 1387 1386 1385 1385 1384 1383 1382 1381 1381 1380 1379 1378 1377 1376 1375 1375 1374 1373 1372 1372 1371 1370 1370 1370 1369 1369 1368 1368 1367 1367 1367 1366 1366 1366 1365 1365 1365 1365 1365 1365
1420 1419 1418 1416 1415 1414 1413 1412 1411 1410 1409 1408 1407 1406 1405 1404 1402 1401 1400 1399 1398 1397 1396 1395 1394 1392 1391 1390 1389 1388 1387 1386 1385 1384 1383 1383 1382 1381 1380 1380 1379 1378 1377 1376 1375 1374 1374 1373 1372 1372 1371 1371 1370 1370 1369 1369 1368 1368 1368 1367 1367 1367 1366 1366 1366 1366 1365 1365 1365
1420 1419 1418 1416 1415 1414 1413 1412 1411 1410 1409 1408 1407 1406 1405 1404 1403 1402 1400 1400 1398 1397 1396 1395 1394 1393 1392 1391 1390 1389 1388 1387 1386 1385 1384 1383 1382 1381 1381 1380 1380 1378 1377 1376 1376 1375 1374 1374 1373 1372 1372 1371 1371 1370 1370 1370 1369 1369 1368 1368 1367 1367 1367 1367 1367 1366 1366 1366 1366
1420 1419 1418 1417 1415 1415 1414 1412 1411 1410 1410 1408 1407 1406 1405 1404 1403 1402 1401 1400 1399 1398 1397 1396 1395 1394 1393 1392 1391 1390 1389 1388 1387 1386 1385 1384 1383 1382 1381 1380 1380 1379 1378 1377 1376 1376 1375 1375 1374 1373 1373 1372 1372 1371 1371 1370 1370 1369 1369 1369 1368 1368 1368 1368 1367 1367 1367 1367 1367
1420 1419 1418 1417 1416 1415 1414 1413 1412 1411 1410 1409 1408 1407 1405 1404 1403 1402 1401 1400 1399 1398 1397 1396 1395 1394 1393 1392 1391 1390 1389 1388 1387 1386 1385 1384 1384 1383 1382 1381 1380 1379 1378 1378 1377 1377 1376 1375 1375 1374 1374 1373 1372 1372 1371 1371 1370 1370 1370 1369 1369 1369 1368 1368 1368 1368 1368 1368 1368
1420 1419 1418 1417 1416 1415 1414 1413 1412 1411 1410 1409 1408 1407 1406 1405 1403 1402 1401 1400 1399 1398 1397 1396 1395 1395 1394 1393 1392 1391 1390 1389 1388 1387 1386 1385 1384 1383 1382 1381 1380 1380 1379 1378 1378 1378 1377 1376 1376 1375 1374 1374 1373 1372 1372 1371 1371 1371 1370 1370 1370 1370 1369 1369 1369 1369 1368 1368 1368
1420 1419 1418 1417 1416 1415 1414 1413 1412 1411 1410 1409 1408 1407 1406 1405 1404 1402 1401 1400 1399 1398 1397 1396 1395 1395 1394 1393 1392 1391 1390 1389 1388 1387 1386 1385 1384 1383 1383 1382 1381 1380 1380 1379 1379 1378 1378 1377 1376 1376 1375 1375 1374 1373 1373 1372 1372 1371 1371 1371 1370 1370 1370 1370 1369 1369 1369 1369 1368
1419 1418 1418 1417 1416 1415 1414 1413 1412 1411 1410 1409 1408 1407 1406 1405 1404 1403 1401 1400 1399 1398 1397 1396 1395 1395 1394 1393 1392 1391 1390 1389 1388 1387 1386 1385 1385 1384 1383 1382 1381 1381 1380 1380 1379 1378 1378 1377 1377 1376 1376 1375 1375 1374 1373 1373 1372 1372 1372 1371 1371 1371 1371 1370 1370 1370 1370 1369 1369
1419 1418 1417 1416 1415 1415 1414 1413 1412 1411 1410 1409 1408 1407 1406 1405 1404 1403 1402 1400 1400 1398 1397 1396 1395 1395 1394 1393 1392 1391 1390 1390 1388 1387 1386 1385 1385 1384 1383 1382 1382 1381 1380 1380 1379 1379 1378 1378 1377 1377 1376 1375 1375 1374 1374 1373 1373 1372 1372 1372 1372 1372 1371 1371 1371 1371 1370 1370 1370
1419 1418 1417 1416 1415 1415 1414 1413 1412 1411 1410 1409 1408 1407 1406 1405 1404 1403 1402 1400 1399 1398 1397 1396 1395 1395 1394 1393 1393 1392 1391 1390 1389 1388 1387 1386 1385 1384 1383 1382 1382 1381 1381 1380 1380 1379 1378 1378 1377 1377 1376 1376 1375 1375 1374 1374 1373 1373 1373 1372 1372 1372 1372 1371 1371 1371 1371 1370 1370
1419 1418 1417 1416 1415 1415 1414 1413 1412 1411 1410 1409 1408 1407 1406 1405 1404 1403 1402 1401 1400 1398 1397 1397 1396 1395 1394 1394 1393 1392 1391 1391 1390 1389 1388 1386 1385 1384 1383 1383 1382 1381 1381 1380 1380 1379 1379 1378 1377 1377 1376 1376 1375 1375 1375 1374 1374 1373 1373 1373 1373 1372 1372 1372 1372 1371 1371 1371 1371
1418 1418 1417 1416 1415 1414 1413 1412 1411 1410 1410 1409 1408 1407 1406 1405 1404 1403 1402 1401 1400 1399 1398 1397 1396 1395 1395 1394 1393 1393 1392 1391 1390 1389 1388 1387 1386 1385 1384 1383 1382 1381 1380 1380 1380 1379 1379 1378 1378 1377 1377 1376 1376 1375 1375 1374 1374 1374 1373 1373 1373 1373 1373 1372 1372 1372 1371 1371 1371
1418 1417 1417 1416 1415 1414 1413 1412 1411 1410 1410 1409 1408 1407 1406 1405 1404 1403 1402 1401 1400 1399 1398 1397 1396 1395 1395 1394 1393 1393 1392 1391 1390 1390 1389 1388 1387 1386 1385 1384 1383 1381 1380 1380 1379 1379 1379 1379 1378 1377 1377 1376 1376 1375 1375 1375 1374 1374 1374 1373 1373 1373 1373 1373 1373 1372 1372 1372 1371
1418 1417 1416 1415 1415 1414 1413 1412 1411 1410 1410 1409 1408 1407 1406 1405 1404 1403 1402 1401 1400 1399 1398 1397 1396 1395 1395 1394 1394 1393 1392 1392 1391 1390 1389 1388 1387 1386 1385 1384 1383 1382 1381 1380 1380 1379 1379 1378 1378 1378 1377 1376 1376 1375 1375 1375 1374 1374 1374 1373 1373 1373 1373 1373 1373 1373 1373 1372 1372
1417 1417 1416 1415 1415 1414 1413 1412 1411 1410 1410 1409 1408 1407 1406 1405 1404 1403 1402 1401 1400 1399 1398 1397 1397 1396 1395 1395 1394 1393 1393 1392 1391 1390 1390 1389 1388 1387 1386 1385 1384 1383 1382 1381 1380 1379 1378 1378 1378 1377 1377 1376 1376 1376 1375 1375 1375 1374 1374 1374 1373 1373 1373 1373 1373 1372 1372 1372 1372
1417 1416 1416 1415 1415 1414 1413 1412 1411 1410 1410 1409 1408 1407 1406 1405 1404 1403 1402 1401 1400 1399 1399 1398 1397 1396 1395 1395 1394 1394 1393 1392 1391 1390 1390 1389 1388 1387 1386 1385 1385 1384 1383 1381 1380 1380 1379 1378 1377 1377 1377 1376 1376 1376 1375 1375 1375 1374 1374 1374 1373 1373 1373 1373 1373 1372 1372 1372 1372
1417 1416 1415 1415 1414 1413 1413 1412 1411 1410 1409 1409 1408 1407 1406 1405 1404 1403 1402 1401 1400 1399 1399 1398 1397 1396 1395 1395 1394 1394 1393 1392 1391 1391 1390 1389 1389 1388 1387 1386 1385 1384 1383 1382 1381 1380 1379 1378 1377 1377 1376 1376 1376 1375 1375 1375 1374 1374 1374 1374 1373 1373 1373 1373 1373 1373 1372 1372 1372
1416 1416 1415 1415 1414 1413 1412 1412 1411 1410 1409 1408 1407 1407 1406 1405 1404 1403 1402 1401 1400 1399 1398 1398 1397 1396 1395 1395 1394 1394 1393 1392 1392 1391 1390 1389 1389 1388 1387 1386 1385 1384 1383 1382 1381 1380 1380 1379 1377 1377 1376 1375 1375 1375 1375 1375 1374 1374 1374 1373 1373 1373 1373 1373 1373 1373 1373 1372 1372
1416 1415 1415 1414 1413 1413 1412 1411 1411 1410 1409 1408 1407 1406 1405 1405 1404 1403 1402 1401 1400 1399 1398 1397 1397 1396 1395 1395 1394 1394 1393 1392 1392 1391 1390 1389 1389 1388 1387 1386 1385 1385 1384 1383 1382 1381 1380 1379 1378 1377 1376 1375 1375 1374 1374 1374 1374 1374 1373 1373 1373 1372 1372 1372 1372 1372 1372 1372 1372
1415 1415 1415 1414 1413 1412 1412 1411 1410 1410 1409 1408 1407 1406 1405 1405 1404 1403 1402 1401 1400 1399 1398 1397 1397 1396 1395 1395 1394 1394 1393 1392 1391 1391 1390 1389 1389 1388 1387 1386 1385 1385 1384 1383 1382 1381 1380 1379 1378 1377 1376 1375 1375 1374 1374 1374 1373 1373 1373 1373 1372 1372 1372 1372 1372 1372 1372 1372 1372
1415 1415 1414 1413 1413 1412 1411 1411 1410 1410 1409 1408 1407 1406 1405 1405 1404 1403 1402 1401 1400 1399 1398 1398 1397 1396 1395 1395 1394 1394 1393 1392 1391 1391 1390 1389 1389 1388 1387 1386 1385 1385 1384 1383 1382 1381 1380 1380 1379 1378 1377 1376 1375 1374 1374 1373 1373 1372 1372 1372 1372 1372 1371 1371 1371 1371 1371 1371 1371